Regional Weather Roundup
Issued by NWS Little Rock, AR

Home | Current Version | Previous Version | Text Only | Print | Product List | Glossary On
Versions: 1 2 3 4 5 6 7 8 9 10 11 12 13 14 15 16 17 18 19 20 21 22 23 24 25 26 27
000
ASUS44 KLZK 251005
RWRLZK

WEATHER ROUNDUP FOR ARKANSAS
NATIONAL WEATHER SERVICE LITTLE ROCK AR
500 AM CDT WED MAY 25 2016

NOTE: "FAIR" INDICATES FEW OR NO CLOUDS BELOW 12,000 FEET WITH NO
SIGNIFICANT WEATHER AND/OR OBSTRUCTIONS TO VISIBILITY.

ARZ001-003-010-029-251100-
NORTHWEST ARKANSAS

CITY           SKY/WX    TMP DP  RH WIND       PRES   REMARKS
FAYETTEVILLE   TSTM      62  61  96 E5G17     30.04R
FORT SMITH     CLOUDY    69  65  86 N24G30    30.00R THUNDER
HARRISON       TSTM      68  64  87 S7        30.04R
BENTONVILLE    CLOUDY    63  57  82 E14       30.00F THUNDER
ROGERS         RAIN      63  63 100 E10       30.04R
SILOAM SPGS    CLOUDY    64  55  72 S10       30.01R
HIGHFILL       LGT RAIN  65  61  87 E12       29.97F
$$

ARZ004-005-016-251100-
NORTH CENTRAL ARKANSAS

CITY           SKY/WX    TMP DP  RH WIND       PRES   REMARKS
BATESVILLE     CLOUDY    66  61  82 S7        30.03R
FLIPPIN        CLOUDY   N/A N/A N/A NE3       29.99R
MTN HOME       CLOUDY    61  61 100 E5        30.01R
$$

ARZ040-041-251100-
WEST CENTRAL ARKANSAS

CITY           SKY/WX    TMP DP  RH WIND       PRES   REMARKS
MENA           CLOUDY    77  73  88 S7        30.01S
MOUNT IDA      CLOUDY    69  64  84 CALM      30.00F
$$

ARZ009-017-025-026-028-251100-
NORTHEAST ARKANSAS

CITY           SKY/WX    TMP DP  RH WIND       PRES   REMARKS
CORNING          N/A     63  63 100 CALM      30.04R
JONESBORO      CLEAR     64  63  96 CALM      30.03R
NEWPORT        CLOUDY    64  64 100 SE5       30.04R
WALNUT RIDGE   PTCLDY    63  59  88 S5        30.04R
BLYTHEVILLE    CLOUDY    65  64  97 SE5       30.04R
$$

ARZ022-023-033-042-044-251100-
CENTRAL ARKANSAS

CITY           SKY/WX    TMP DP  RH WIND       PRES   REMARKS
LITTLE ROCK    CLOUDY    68  62  81 S12       29.99S
N LITTLE ROCK    N/A     68  62  82 S9        30.00R
JACKSONVILLE   CLOUDY    69  63  80 CALM      30.00R
SEARCY         CLOUDY    64  64 100 N3        30.04R
HOT SPRINGS    LGT RAIN  69  65  86 NW6       30.02F
RUSSELLVILLE   CLOUDY    66  64  93 CALM      30.02R
CLINTON        MOCLDY    63  63 100 CALM      30.04R
$$

ARZ036-251100-
EAST ARKANSAS

CITY           SKY/WX    TMP DP  RH WIND       PRES   REMARKS
WEST MEMPHIS   CLOUDY    64  63  96 S5        30.04R
$$

ARZ050-053-066-070-073-251100-
SOUTHWEST ARKANSAS

CITY           SKY/WX    TMP DP  RH WIND       PRES   REMARKS
ARKADELPHIA    FAIR      70  70 100 CALM      30.03R
CAMDEN         CLOUDY    68  64  88 S3        30.01S
TEXARKANA      CLOUDY    75  71  87 S8        30.00F
EL DORADO      CLOUDY    74  72  93 S9        30.03R
DE QUEEN       CLOUDY    76  72  87 CALM      29.96F
$$

ARZ056-057-069-251100-
SOUTHEAST ARKANSAS

CITY           SKY/WX    TMP DP  RH WIND       PRES   REMARKS
PINE BLUFF     MOCLDY    68  62  81 SE5       30.02S
STUTTGART      CLOUDY    70  61  73 S9        30.03R
MONTICELLO     CLOUDY    69  64  84 S3        30.04R

$$






USA.gov is the U.S. government's official web portal to all federal, state and local government web resources and services.